Weather History for KP60 - July, 2012

Change the Weather History Date:

Saturday, July 7, 2012

  Actual Average Record
Temperature  
Mean Temperature 54 °F 55 °F  
Max Temperature 73 °F 71 °F 80 °F (2002)
Min Temperature 37 °F 39 °F 29 °F (2010)
Degree Days  
Heating Degree Days 10 10  
Month to date heating degree days 78  
Since 1 June heating degree days 571  
Since 1 July heating degree days 78  
Cooling Degree Days 0 0  
Month to date cooling degree days 0  
Year to date cooling degree days 0  
Since 1 June cooling degree days 0  
Growing Degree Days 4 (Base 50)    
Moisture  
Dew Point 43 °F    
Average Humidity 68    
Maximum Humidity 89    
Minimum Humidity 29    
Precipitation  
Precipitation 0.04 in 0.04 in 0.27 in (2006)
Month to date precipitation 0.31  
Year to date precipitation 11.39  
Sea Level Pressure  
Sea Level Pressure 30.30 in    
Wind  
Wind Speed 2 mph (NNW)    
Max Wind Speed 9 mph    
Max Gust Speed 17 mph    
T = Trace of Precipitation, MM = Missing Value Source: NWS Daily Summary

Daily Weather History Graph

Daily Weather History Graph

Search for Another Location

Airport or City:

Trip Planner

Search our weather history database for the weather conditions in past years. The results will help you decide how hot, cold, wet, or windy it might be!

Date:

Astronomy

Jul. 07, 2012 Rise Set
Actual Time 5:44 AM MDT 9:08 PM MDT
Civil Twilight 5:08 AM MDT 9:44 PM MDT
Nautical Twilight 4:21 AM MDT 10:31 PM MDT
Astronomical Twilight 3:21 AM MDT 11:31 PM MDT
Moon 11:14 PM MDT (7/7) 10:25 AM MDT (7/7)
Length of Visible Light 16h 35m
Length of Day
15h 23m
Waning Gibbous, 81% of the Moon is Illuminated
Jul 7
Waning Gibbous
Jul 10
Last Quarter
Jul 18
New
Jul 26
First Quarter
Aug 1
Full

Hourly Weather History & Observations

Time (MDT) Temp. Windchill Dew Point Humidity Pressure Visibility Wind Dir Wind Speed Gust Speed Precip Events Conditions
12:56 AM 43.0 °F 41.3 °F 37.9 °F 82% 30.30 in - NW 3.5 mph - N/A   Unknown
1:56 AM 43.0 °F 41.3 °F 37.0 °F 80% 30.27 in - NW 3.5 mph - N/A   Unknown
2:56 AM 41.0 °F - 36.0 °F 82% 30.29 in - Calm Calm - N/A   Unknown
3:56 AM 39.9 °F - 36.0 °F 86% 30.28 in - Calm Calm - N/A   Unknown
4:56 AM 39.0 °F 36.8 °F 35.1 °F 86% 30.29 in - NW 3.5 mph - N/A   Unknown
5:56 AM 37.9 °F 35.5 °F 35.1 °F 89% 30.32 in - NW 3.5 mph - N/A   Unknown
6:56 AM 41.0 °F - 37.0 °F 86% 30.31 in - Calm Calm - N/A   Unknown
7:56 AM 53.1 °F - 44.1 °F 71% 30.32 in - Calm Calm - N/A   Unknown
8:56 AM 60.1 °F - 42.1 °F 51% 30.30 in - Calm Calm - N/A   Unknown
9:56 AM 61.0 °F - 41.0 °F 48% 30.32 in - Calm Calm - N/A   Unknown
10:56 AM 64.0 °F - 39.9 °F 41% 30.31 in - ESE 3.5 mph - N/A   Unknown
11:56 AM 66.9 °F - 41.0 °F 39% 30.30 in - East 4.6 mph - N/A   Unknown
12:56 PM 71.1 °F - 48.0 °F 44% 30.27 in - Variable 3.5 mph - N/A   Unknown
1:56 PM 70.0 °F - 48.0 °F 46% 30.26 in - Calm Calm - N/A   Unknown
2:56 PM 68.0 °F - 39.0 °F 35% 30.27 in - WNW 9.2 mph 17.3 mph N/A   Unknown
3:56 PM 72.0 °F - 37.9 °F 29% 30.25 in - Calm Calm - N/A   Unknown
4:56 PM 62.1 °F - 48.9 °F 62% 30.34 in - Variable 4.6 mph - 0.01 in   Unknown
5:56 PM 55.9 °F - 52.0 °F 87% 30.40 in - Variable 3.5 mph - 0.02 in   Unknown
6:56 PM 57.9 °F - 52.0 °F 81% 30.36 in - Calm Calm - 0.01 in   Unknown
7:56 PM 57.9 °F - 51.1 °F 78% 30.30 in - Variable 4.6 mph - N/A   Unknown
8:56 PM 57.0 °F - 48.9 °F 74% 30.30 in - Variable 4.6 mph - N/A   Unknown
9:56 PM 54.0 °F - 48.9 °F 83% 30.30 in - Calm Calm - N/A   Unknown
10:56 PM 52.0 °F - 48.0 °F 86% 30.32 in - Calm Calm - N/A   Unknown
11:56 PM 50.0 °F - 46.9 °F 89% 30.29 in - Calm Calm - N/A   Unknown